Total_Precipitation_Accumulation
1.61 1.59 1.43 1.35 1.24 1.31 1.45 1.56 1.61 1.69 1.74 1.69 1.59 1.73 1.80 1.95 2.07 2.22 2.64 2.92 3.20 3.79 4.14 4.01 3.65 3.37 3.23 3.19 3.40 3.27 3.27 3.38 3.29 3.27 3.24 3.14 3.04 2.91 2.85 2.80 2.78 2.73 2.75
1.50 1.55 1.48 1.46 1.39 1.38 1.48 1.47 1.41 1.58 1.76 1.71 1.59 1.56 1.61 1.76 1.93 1.97 2.18 2.46 2.77 3.19 3.97 4.36 4.22 3.95 3.94 3.76 3.98 3.88 3.66 3.39 3.22 3.29 3.25 3.18 3.17 2.99 2.81 2.66 2.63 2.51 2.48
1.31 1.40 1.42 1.36 1.37 1.47 1.52 1.57 1.41 1.46 1.52 1.55 1.58 1.55 1.48 1.56 1.65 1.73 1.69 1.80 2.01 2.46 3.21 3.97 4.46 4.46 4.47 4.39 4.26 3.99 3.79 3.53 3.32 3.27 3.15 2.98 3.04 2.98 2.78 2.70 2.57 2.58 2.49
1.18 1.34 1.37 1.31 1.30 1.47 1.62 1.71 1.61 1.60 1.58 1.59 1.62 1.64 1.55 1.57 1.48 1.56 1.60 1.55 1.77 1.81 2.30 3.02 3.62 3.92 4.30 4.50 4.35 4.08 3.79 3.47 3.19 3.10 3.02 2.81 2.82 2.82 2.71 2.77 2.64 2.51 2.41
1.25 1.44 1.56 1.55 1.50 1.52 1.57 1.56 1.66 1.69 1.69 1.70 1.63 1.62 1.62 1.59 1.63 1.52 1.59 1.61 1.57 1.69 1.92 2.24 2.73 3.16 3.58 3.85 4.02 4.20 4.10 3.62 3.22 3.12 3.05 2.77 2.67 2.74 2.59 2.58 2.51 2.30 2.18
1.56 1.72 1.73 1.82 1.85 1.77 1.76 1.72 1.78 1.76 1.69 1.77 1.63 1.54 1.55 1.49 1.65 1.75 1.73 1.76 1.67 1.61 1.98 2.23 2.29 2.35 2.86 3.21 3.55 3.98 4.22 3.95 3.57 3.32 3.24 3.00 2.77 2.82 2.53 2.45 2.44 2.18 2.03
1.82 2.10 2.07 2.14 2.21 2.15 2.11 2.08 2.31 2.26 2.00 1.82 1.92 1.79 1.64 1.52 1.72 1.79 1.80 1.95 1.94 2.00 2.23 2.27 2.13 2.06 2.07 2.37 2.80 3.40 4.07 4.10 3.78 3.48 3.37 3.15 2.85 2.71 2.44 2.35 2.35 2.22 1.99
1.69 1.88 2.19 2.34 2.30 2.44 2.54 2.50 2.86 3.00 2.49 2.06 2.21 2.50 2.25 2.08 1.88 1.72 1.78 1.91 2.10 2.28 2.36 2.23 2.07 1.94 1.87 1.92 1.98 2.51 3.30 3.96 3.89 3.60 3.36 3.14 2.84 2.55 2.44 2.46 2.41 2.41 2.15
1.64 1.78 1.95 2.13 2.19 2.35 2.52 2.63 2.94 3.48 3.24 2.56 2.37 2.84 2.66 2.49 2.35 1.99 1.80 1.82 1.96 2.27 2.53 2.46 2.22 2.00 1.83 1.89 1.86 2.09 2.58 3.21 3.77 3.84 3.66 3.36 3.05 2.67 2.56 2.63 2.45 2.55 2.54
1.51 1.63 1.77 1.91 2.06 2.14 2.33 2.42 2.53 3.11 3.52 3.18 2.87 2.56 2.26 2.26 2.47 2.46 2.08 1.88 1.87 2.05 2.31 2.32 2.18 2.14 1.99 1.87 1.79 1.81 2.23 2.67 3.32 3.78 4.01 3.84 3.46 3.06 2.98 3.12 2.82 2.68 2.61
1.60 1.61 1.78 1.85 1.87 1.98 2.15 2.48 2.75 3.03 3.28 3.32 3.29 3.05 2.73 2.44 2.11 2.42 2.53 2.19 2.04 1.98 2.06 2.15 2.08 2.07 2.07 2.00 2.09 1.93 1.99 2.23 2.59 3.25 3.91 4.20 3.92 3.56 3.53 3.59 3.20 3.02 2.87
1.77 1.76 1.81 1.84 1.81 1.86 2.00 2.29 2.62 2.86 3.17 3.41 3.38 3.16 3.01 2.87 2.60 2.54 2.45 2.31 2.32 2.16 2.01 1.98 1.88 1.90 2.06 2.25 2.26 2.31 2.03 1.89 1.99 2.33 2.89 3.43 3.73 3.79 3.95 3.97 3.73 3.68 3.44
1.72 1.73 1.78 1.90 1.97 2.01 2.14 2.34 2.54 2.51 2.71 3.15 3.18 3.03 2.95 2.77 2.70 2.77 2.72 2.41 2.26 1.99 1.87 1.83 1.72 1.84 1.86 1.97 2.31 2.49 2.03 1.73 1.58 1.82 2.07 2.34 2.74 3.24 3.77 4.11 4.21 4.24 3.96
1.74 1.64 1.64 1.73 1.84 2.01 2.07 2.15 2.21 2.19 2.32 2.58 2.70 2.89 2.99 2.77 2.69 2.60 2.59 2.65 2.40 2.10 1.93 1.79 1.64 1.66 1.68 1.78 2.09 2.29 1.95 1.73 1.37 1.36 1.48 1.73 2.00 2.36 2.82 3.40 3.89 4.13 4.17
1.50 1.37 1.33 1.40 1.48 1.55 1.66 1.81 1.90 2.00 2.09 2.22 2.34 2.49 2.65 2.77 2.72 2.56 2.55 2.56 2.57 2.36 2.14 1.97 1.77 1.55 1.61 1.75 2.02 1.82 1.76 1.76 1.47 1.30 1.24 1.36 1.56 1.72 1.96 2.25 2.65 3.10 3.46
1.46 1.35 1.26 1.21 1.20 1.18 1.21 1.41 1.59 1.70 1.81 1.95 2.12 2.26 2.31 2.38 2.59 2.58 2.46 2.48 2.44 2.32 2.18 1.93 1.80 1.62 1.74 1.69 1.90 1.72 1.76 1.87 1.56 1.41 1.27 1.27 1.36 1.34 1.31 1.45 1.58 1.85 2.34
1.46 1.43 1.31 1.23 1.32 1.33 1.29 1.34 1.36 1.41 1.49 1.61 1.74 1.87 2.02 2.28 2.58 2.64 2.62 2.52 2.44 2.34 2.12 1.87 1.67 1.57 1.87 1.97 1.89 1.78 1.78 1.77 1.56 1.52 1.35 1.23 1.26 1.24 1.19 1.12 1.13 1.29 1.59
1.04 1.16 1.29 1.20 1.18 1.21 1.25 1.31 1.31 1.34 1.39 1.47 1.56 1.68 1.86 2.15 2.48 2.69 2.79 2.69 2.55 2.44 2.30 2.12 1.77 1.53 1.66 1.98 2.09 2.03 1.86 1.73 1.61 1.60 1.42 1.26 1.21 1.20 1.15 1.09 1.06 1.09 1.18
0.84 0.85 0.95 0.94 1.04 1.17 1.22 1.25 1.25 1.32 1.36 1.41 1.54 1.60 1.65 1.85 2.05 2.23 2.42 2.55 2.53 2.53 2.49 2.24 1.93 1.65 1.59 1.76 2.02 2.01 1.97 1.99 1.77 1.72 1.68 1.50 1.35 1.28 1.22 1.09 1.07 1.08 1.12
0.93 0.94 1.05 1.09 1.05 1.07 1.15 1.23 1.26 1.24 1.26 1.28 1.34 1.41 1.47 1.52 1.71 1.86 1.96 2.18 2.38 2.64 2.70 2.54 2.26 1.94 1.81 1.71 1.80 1.97 2.06 2.02 1.98 1.79 1.73 1.58 1.54 1.46 1.43 1.28 1.15 1.07 1.09
1.03 1.03 1.11 1.21 1.26 1.24 1.22 1.28 1.24 1.21 1.24 1.22 1.25 1.23 1.27 1.31 1.42 1.62 1.65 1.86 2.17 2.46 2.56 2.65 2.53 2.21 1.94 1.80 1.56 1.67 1.96 2.19 2.20 2.11 2.07 1.80 1.65 1.46 1.42 1.45 1.43 1.30 1.15
0.99 0.94 0.94 0.98 1.06 1.12 1.44 1.40 1.19 1.10 1.15 1.21 1.24 1.21 1.24 1.19 1.15 1.25 1.40 1.52 1.80 2.03 2.16 2.27 2.29 2.13 1.92 1.80 1.77 1.73 1.82 2.00 2.04 1.89 1.92 2.01 1.92 1.76 1.62 1.51 1.57 1.63 1.54
0.92 0.86 0.86 0.81 0.83 1.03 1.21 1.03 1.02 0.98 1.09 1.20 1.29 1.32 1.26 1.18 1.20 1.18 1.23 1.25 1.30 1.51 1.74 1.96 2.02 1.91 1.99 1.92 1.89 1.78 1.78 1.81 1.78 1.82 1.88 1.96 1.96 1.89 1.79 1.78 1.80 1.66 1.59
0.89 0.83 0.85 0.88 0.86 0.94 1.10 0.93 0.88 0.91 1.09 1.22 1.22 1.19 1.27 1.28 1.32 1.37 1.26 1.28 1.21 1.21 1.32 1.35 1.51 1.77 1.98 2.18 2.18 2.09 2.09 2.00 1.89 1.93 1.92 1.91 1.78 1.72 1.65 1.68 1.76 1.59 1.47
1.03 0.95 1.00 1.02 0.96 0.93 1.06 1.00 0.98 0.98 1.11 1.20 1.18 1.21 1.32 1.37 1.58 1.64 1.45 1.46 1.38 1.33 1.33 1.45 1.54 1.67 1.82 1.94 2.13 2.20 2.17 2.16 2.01 1.89 1.79 1.75 1.64 1.67 1.66 1.58 1.57 1.59 1.45
0.95 0.99 0.99 0.92 0.90 0.96 1.11 1.07 1.10 1.15 1.23 1.32 1.31 1.34 1.63 1.62 1.68 1.61 1.45 1.54 1.48 1.31 1.23 1.27 1.32 1.42 1.48 1.60 1.76 1.81 2.01 2.19 2.11 1.93 1.64 1.57 1.55 1.62 1.72 1.59 1.50 1.44 1.40